Port Angeles, WA

6:47 PM PST on February 11, 2016 (GMT -0800)
Fairchild International

Weather History for KCLM - August, 2012

Change the Weather History Date:

Thursday, August 16, 2012

  Actual Average Record
Temperature  
Mean Temperature 74 °F -  
Max Temperature 88 °F 68 °F 88 °F (2012)
Min Temperature 61 °F 51 °F 44 °F (1986)
Cooling Degree Days 10    
Growing Degree Days 24 (Base 50)    
Moisture  
Dew Point 52 °F    
Average Humidity 50    
Maximum Humidity 72    
Minimum Humidity 28    
Precipitation  
Precipitation 0.00 in - - ()
Sea Level Pressure  
Sea Level Pressure 29.93 in    
Wind  
Wind Speed 5 mph (South)    
Max Wind Speed 7 mph    
Max Gust Speed -    
Visibility 10 miles    
Events      
Averages and records for this station are not official NWS values.
T = Trace of Precipitation, MM = Missing Value Source: NWS Daily Summary

Daily Weather History Graph

Daily Weather History Graph

Search for Another Location

Airport or City:

Trip Planner

Search our weather history database for the weather conditions in past years. The results will help you decide how hot, cold, wet, or windy it might be!

Date:

Astronomy

Aug. 16, 2012 Rise Set
Actual Time 6:10 AM PDT 8:24 PM PDT
Civil Twilight 5:36 AM PDT 8:58 PM PDT
Nautical Twilight 4:54 AM PDT 9:40 PM PDT
Astronomical Twilight 4:05 AM PDT 10:28 PM PDT
Moon 5:15 AM PDT (8/16) 7:33 PM PDT (8/16)
Length of Visible Light 15h 21m
Length of Day
14h 13m
Waning Crescent, 1% of the Moon is Illuminated
Aug 16
Waning Crescent
Aug 17
New
Aug 24
First Quarter
Aug 31
Full
Sep 8
Last Quarter

Hourly Weather History & Observations

Time (PDT) Temp. Heat Index Dew Point Humidity Pressure Visibility Wind Dir Wind Speed Gust Speed Precip Events Conditions
12:53 AM 66.0 °F - 51.1 °F 59% 29.92 in 10.0 mi SW 6.9 mph - N/A   Clear
1:53 AM 62.1 °F - 52.0 °F 70% 29.92 in 10.0 mi SW 4.6 mph - N/A   Clear
2:53 AM 61.0 °F - 51.1 °F 70% 29.92 in 10.0 mi Calm Calm - N/A   Clear
3:53 AM 63.0 °F - 51.1 °F 65% 29.92 in 10.0 mi SW 6.9 mph - N/A   Clear
4:53 AM 66.0 °F - 50.0 °F 56% 29.92 in 10.0 mi SW 6.9 mph - N/A   Clear
5:53 AM 64.0 °F - 50.0 °F 60% 29.94 in 10.0 mi SW 6.9 mph - N/A   Clear
6:53 AM 62.1 °F - 51.1 °F 67% 29.95 in 10.0 mi Calm Calm - N/A   Clear
7:53 AM 70.0 °F - 53.1 °F 55% 29.96 in 10.0 mi SW 5.8 mph - N/A   Clear
8:53 AM 78.1 °F - 50.0 °F 37% 29.97 in 10.0 mi ESE 5.8 mph - N/A   Clear
9:53 AM 77.0 °F - 48.9 °F 37% 29.97 in 10.0 mi Variable 5.8 mph - N/A   Clear
10:53 AM 77.0 °F - 51.1 °F 40% 29.98 in 10.0 mi East 4.6 mph - N/A   Clear
11:53 AM 77.0 °F - 52.0 °F 42% 29.97 in 10.0 mi NE 6.9 mph - N/A   Clear
12:53 PM 78.1 °F - 52.0 °F 40% 29.96 in 10.0 mi NE 5.8 mph - N/A   Clear
1:53 PM 80.1 °F 79.9 °F 53.1 °F 39% 29.96 in 10.0 mi Variable 6.9 mph - N/A   Clear
2:53 PM 82.9 °F - 51.1 °F 33% 29.95 in 10.0 mi East 5.8 mph - N/A   Clear
3:53 PM 84.9 °F - 50.0 °F 30% 29.93 in 10.0 mi Variable 6.9 mph - N/A   Clear
4:53 PM 84.9 °F - 50.0 °F 30% 29.91 in 10.0 mi East 5.8 mph - N/A   Clear
5:53 PM 88.0 °F - 51.1 °F 28% 29.90 in 10.0 mi Calm Calm - N/A   Clear
6:53 PM 82.9 °F - 51.1 °F 33% 29.89 in 10.0 mi North 3.5 mph - N/A   Clear
7:53 PM 79.0 °F - 53.1 °F 40% 29.89 in 10.0 mi Calm Calm - N/A   Clear
8:53 PM 70.0 °F - 57.9 °F 65% 29.91 in 10.0 mi SW 3.5 mph - N/A   Clear
9:53 PM 66.9 °F - 55.9 °F 68% 29.91 in 10.0 mi SW 3.5 mph - N/A   Clear
10:53 PM 66.9 °F - 55.0 °F 66% 29.91 in 10.0 mi Calm Calm - N/A   Clear
11:53 PM 62.1 °F - 53.1 °F 72% 29.91 in 10.0 mi Calm Calm - N/A   Clear